Lawton, OK

9:31 AM CDT on September 30, 2016 (GMT -0500)
Post Army Air Field

Weather History for KFSI - December, 2013

Change the Weather History Date:

Friday, December 20, 2013

  Actual Average Record
Temperature  
Mean Temperature 41 °F -  
Max Temperature 54 °F 49 °F 74 °F (2010)
Min Temperature 28 °F 28 °F 6 °F (1990)
Degree Days  
Heating Degree Days 24    
Moisture  
Dew Point 31 °F    
Average Humidity 89    
Maximum Humidity 100    
Minimum Humidity 59    
Precipitation  
Precipitation 0.60 in - - ()
Sea Level Pressure  
Sea Level Pressure 29.83 in    
Wind  
Wind Speed 9 mph (North)    
Max Wind Speed 25 mph    
Max Gust Speed 32 mph    
Visibility 6 miles    
Events Fog , Rain    
Averages and records for this station are not official NWS values.
T = Trace of Precipitation, MM = Missing Value Source: NWS Daily Summary

Daily Weather History Graph

Daily Weather History Graph

Search for Another Location

Airport or City:

Trip Planner

Search our weather history database for the weather conditions in past years. The results will help you decide how hot, cold, wet, or windy it might be!

Date:

Astronomy

Dec. 20, 2013 Rise Set
Actual Time 7:36 AM CST 5:26 PM CST
Civil Twilight 7:08 AM CST 5:54 PM CST
Nautical Twilight 6:36 AM CST 6:26 PM CST
Astronomical Twilight 6:06 AM CST 6:56 PM CST
Moon 8:41 PM CST (12/20) 9:37 AM CST (12/20)
Length of Visible Light 10h 46m
Length of Day
9h 50m
Waning Gibbous, 90% of the Moon is Illuminated
Dec 20
Waning Gibbous
Dec 25
Last Quarter
Jan 1
New
Jan 7
First Quarter
Jan 15
Full

Hourly Weather History & Observations

Time (CST) Temp. Windchill Dew Point Humidity Pressure Visibility Wind Dir Wind Speed Gust Speed Precip Events Conditions
12:58 AM 54.1 °F - 51.3 °F 90% 29.69 in 10.0 mi SSW 5.8 mph - N/A   Clear
1:58 AM 50.0 °F - 49.6 °F 99% 29.70 in 10.0 mi WSW 1.2 mph - N/A   Clear
2:22 AM 50.0 °F - 50.0 °F 100% 29.72 in 1.0 mi Calm Calm - N/A   Clear
2:24 AM 48.2 °F - 48.2 °F 100% 29.72 in 0.8 mi Calm Calm - N/A   Clear
2:26 AM 48.2 °F - 48.2 °F 100% 29.72 in 0.5 mi Calm Calm - N/A Fog Fog
2:30 AM 48.2 °F - 48.2 °F 100% 29.72 in 0.2 mi Calm Calm - N/A Fog Fog
2:36 AM 48.2 °F - 48.2 °F 100% 29.72 in 0.5 mi SSE 3.5 mph - N/A Fog Fog
2:40 AM 48.2 °F - 48.2 °F 100% 29.72 in 0.8 mi SSE 3.5 mph - N/A   Clear
2:44 AM 46.4 °F - 46.4 °F 100% 29.72 in 0.5 mi SSE 2.3 mph - N/A Fog Fog
2:48 AM 46.4 °F 45.2 °F 46.4 °F 100% 29.72 in 0.2 mi SSE 3.5 mph - N/A Fog Fog
2:56 AM 46.4 °F - 46.4 °F 100% 29.72 in 0.5 mi South 2.3 mph - N/A Fog Fog
2:58 AM 46.2 °F - 46.2 °F 100% 29.71 in 0.5 mi South 2.3 mph - N/A Fog Fog
3:16 AM 46.4 °F 45.2 °F 46.4 °F 100% 29.72 in 0.8 mi South 3.5 mph - N/A   Clear
3:20 AM 48.2 °F - 48.2 °F 100% 29.73 in 1.0 mi SSW 3.5 mph - N/A   Clear
3:24 AM 46.4 °F - 46.4 °F 100% 29.74 in 1.2 mi SW 2.3 mph - N/A   Clear
3:26 AM 46.4 °F - 46.4 °F 100% 29.74 in 1.8 mi SW 1.2 mph - N/A   Clear
3:28 AM 46.4 °F - 46.4 °F 100% 29.74 in 2.5 mi West 1.2 mph - N/A   Clear
3:30 AM 46.4 °F - 46.4 °F 100% 29.74 in 4.0 mi Calm Calm - N/A   Clear
3:58 AM 46.4 °F 44.3 °F 46.4 °F 100% 29.75 in 2.5 mi West 4.6 mph - N/A   Clear
4:06 AM 46.4 °F 41.9 °F 46.4 °F 100% 29.77 in 3.0 mi NNW 9.2 mph - N/A   Clear
4:26 AM 44.6 °F 36.4 °F 44.6 °F 100% 29.78 in 10.0 mi North 20.7 mph 28.8 mph N/A   Mostly Cloudy
4:46 AM 41.0 °F 31.9 °F 39.2 °F 93% 29.83 in 10.0 mi North 19.6 mph - N/A   Overcast
4:56 AM 39.2 °F 29.3 °F 37.4 °F 93% 29.83 in 10.0 mi North 20.7 mph 26.5 mph N/A   Overcast
4:58 AM 39.6 °F 29.7 °F 37.0 °F 91% 29.83 in 10.0 mi North 20.7 mph 26.5 mph N/A   Overcast
5:13 AM 39.2 °F 29.0 °F 33.8 °F 81% 29.82 in 10.0 mi North 21.9 mph 32.2 mph N/A   Overcast
5:58 AM 36.1 °F 24.2 °F 31.3 °F 83% 29.82 in 10.0 mi North 25.3 mph 32.2 mph N/A   Overcast
6:58 AM 34.3 °F 21.8 °F 29.1 °F 81% 29.85 in 10.0 mi NNE 25.3 mph 29.9 mph N/A   Overcast
7:28 AM 32.0 °F 19.2 °F 28.4 °F 87% 29.86 in 10.0 mi NNE 23.0 mph 31.1 mph N/A   Overcast
7:43 AM 32.0 °F 18.9 °F 28.4 °F 87% 29.86 in 10.0 mi North 24.2 mph 31.1 mph N/A   Scattered Clouds
7:58 AM 32.9 °F 21.0 °F 27.7 °F 81% 29.88 in 10.0 mi NNE 20.7 mph 28.8 mph N/A   Clear
8:58 AM 32.2 °F 20.0 °F 25.5 °F 76% 29.91 in 10.0 mi North 20.7 mph 31.1 mph N/A   Scattered Clouds
9:08 AM 32.0 °F 19.5 °F 24.8 °F 75% 29.91 in 10.0 mi North 21.9 mph 27.6 mph N/A   Mostly Cloudy
9:18 AM 32.0 °F 20.5 °F 24.8 °F 75% 29.91 in 10.0 mi North 18.4 mph 27.6 mph N/A   Scattered Clouds
9:23 AM 32.0 °F 19.2 °F 24.8 °F 75% 29.92 in 10.0 mi North 23.0 mph 29.9 mph N/A   Mostly Cloudy
9:53 AM 32.0 °F 21.2 °F 23.0 °F 69% 29.94 in 10.0 mi NNE 16.1 mph 24.2 mph N/A   Overcast
9:58 AM 32.4 °F 20.3 °F 23.7 °F 70% 29.95 in 10.0 mi NNE 20.7 mph 26.5 mph N/A   Overcast
10:53 AM 32.0 °F 20.1 °F 23.0 °F 69% 29.94 in 10.0 mi North 19.6 mph - N/A   Overcast
10:58 AM 32.5 °F 21.2 °F 22.3 °F 66% 29.95 in 10.0 mi North 18.4 mph 23.0 mph N/A   Mostly Cloudy
11:58 AM 33.3 °F 22.5 °F 21.2 °F 61% 29.94 in 10.0 mi North 17.3 mph 23.0 mph N/A   Scattered Clouds
12:58 PM 33.1 °F 22.6 °F 20.3 °F 59% 29.90 in 10.0 mi NNE 16.1 mph - N/A   Mostly Cloudy
1:58 PM 31.1 °F 19.7 °F 18.5 °F 60% 29.91 in 10.0 mi North 17.3 mph - N/A   Overcast
2:58 PM 30.2 °F 18.9 °F 18.3 °F 61% 29.92 in 10.0 mi North 16.1 mph - N/A   Overcast
3:58 PM 30.4 °F 18.7 °F 19.0 °F 63% 29.88 in 10.0 mi NNE 17.3 mph - N/A   Overcast
4:01 PM 32.0 °F 20.8 °F 19.4 °F 60% 29.86 in 10.0 mi NNE 17.3 mph - N/A   Light Drizzle
4:41 PM 30.2 °F 18.9 °F 23.0 °F 75% 29.86 in 10.0 mi NNE 16.1 mph - N/A Rain Light Freezing Rain
4:58 PM 29.7 °F 19.6 °F 23.0 °F 76% 29.89 in 10.0 mi North 12.7 mph - 0.00 in Rain Light Freezing Rain
4:59 PM 30.2 °F 19.8 °F 23.0 °F 75% 29.88 in 10.0 mi North 13.8 mph - N/A Rain Light Freezing Rain
5:35 PM 28.4 °F 18.0 °F 24.8 °F 86% 29.87 in 6.0 mi NNE 12.7 mph - N/A Rain Light Freezing Rain
5:40 PM 28.4 °F 18.0 °F 24.8 °F 86% 29.86 in 8.0 mi NE 12.7 mph - N/A Rain Light Freezing Rain
5:45 PM 28.4 °F 18.0 °F 24.8 °F 86% 29.85 in 9.0 mi NE 12.7 mph - N/A Rain Light Freezing Rain
5:47 PM 28.4 °F 18.0 °F 24.8 °F 86% 29.85 in 9.0 mi NE 12.7 mph - N/A Rain Light Freezing Rain
5:58 PM 28.8 °F 17.9 °F 24.3 °F 83% 29.88 in 10.0 mi NE 13.8 mph - 0.05 in Rain Light Freezing Rain
6:03 PM 28.4 °F 18.0 °F 24.8 °F 86% 29.85 in 10.0 mi NE 12.7 mph - N/A Rain Light Freezing Rain
6:12 PM 28.4 °F 18.0 °F 24.8 °F 86% 29.84 in 8.0 mi NE 12.7 mph - N/A Rain Light Freezing Rain
6:23 PM 28.4 °F 18.5 °F 24.8 °F 86% 29.85 in 7.0 mi NE 11.5 mph - N/A Rain Light Freezing Rain
6:30 PM 28.4 °F 18.5 °F 24.8 °F 86% 29.84 in 8.0 mi NNE 11.5 mph - N/A Rain Light Freezing Rain
6:50 PM 28.4 °F 18.5 °F 26.6 °F 93% 29.87 in 7.0 mi NNE 11.5 mph - N/A Rain Light Freezing Rain
6:58 PM 28.9 °F 18.6 °F 25.5 °F 87% 29.89 in 8.0 mi North 12.7 mph - 0.04 in Rain Light Freezing Rain
6:59 PM 28.4 °F 18.0 °F 26.6 °F 93% 29.86 in 8.0 mi North 12.7 mph - N/A Rain Light Freezing Rain
7:00 PM 28.4 °F 18.5 °F 26.6 °F 93% 29.86 in 8.0 mi North 11.5 mph - N/A Rain Light Freezing Rain
7:16 PM 30.2 °F 20.8 °F 26.6 °F 86% 29.86 in 8.0 mi North 11.5 mph - N/A Rain Light Freezing Rain
7:21 PM 28.4 °F 18.5 °F 26.6 °F 93% 29.87 in 7.0 mi North 11.5 mph - N/A Rain Light Freezing Rain
7:33 PM 30.2 °F 20.2 °F 26.6 °F 86% 29.86 in 7.0 mi North 12.7 mph - N/A Rain Light Freezing Rain
7:41 PM 30.2 °F 20.8 °F 26.6 °F 86% 29.85 in 6.0 mi North 11.5 mph - N/A Rain Light Freezing Rain
7:44 PM 30.2 °F 20.2 °F 26.6 °F 86% 29.85 in 6.0 mi North 12.7 mph - N/A Rain Light Freezing Rain
7:50 PM 30.2 °F 20.8 °F 26.6 °F 86% 29.86 in 5.0 mi North 11.5 mph - N/A Rain Light Freezing Rain
7:54 PM 28.4 °F 18.5 °F 26.6 °F 93% 29.86 in 5.0 mi North 11.5 mph - N/A Rain Light Freezing Rain
7:58 PM 29.3 °F 19.6 °F 26.4 °F 89% 29.89 in 4.0 mi North 11.5 mph - 0.05 in Rain Light Freezing Rain
7:59 PM 28.4 °F 18.5 °F 26.6 °F 93% 29.86 in 4.0 mi North 11.5 mph - N/A Rain Light Freezing Rain
8:14 PM 30.2 °F 20.2 °F 26.6 °F 86% 29.85 in 4.0 mi North 12.7 mph - N/A Rain Light Freezing Rain
8:17 PM 30.2 °F 20.2 °F 28.4 °F 93% 29.83 in 4.0 mi North 12.7 mph - N/A Rain Light Freezing Rain
8:26 PM 30.2 °F 21.3 °F 28.4 °F 93% 29.85 in 4.0 mi North 10.4 mph - N/A Rain Light Freezing Rain
8:31 PM 30.2 °F 20.8 °F 26.6 °F 86% 29.86 in 4.0 mi North 11.5 mph - N/A Rain Light Freezing Rain
8:41 PM 30.2 °F 20.8 °F 26.6 °F 86% 29.85 in 3.0 mi North 11.5 mph - N/A Rain Light Freezing Rain
8:46 PM 30.2 °F 21.3 °F 28.4 °F 93% 29.88 in 3.0 mi North 10.4 mph - N/A Rain Light Freezing Rain
8:52 PM 30.2 °F 20.8 °F 28.4 °F 93% 29.92 in 2.5 mi North 11.5 mph - N/A Rain Light Freezing Rain
8:58 PM 29.7 °F 20.1 °F 28.0 °F 94% 29.93 in 2.0 mi North 11.5 mph - 0.15 in Rain Light Freezing Rain
8:59 PM 30.2 °F 20.8 °F 28.4 °F 93% 29.90 in 2.0 mi North 11.5 mph - N/A Rain Light Freezing Rain
9:04 PM 30.2 °F 20.8 °F 28.4 °F 93% 29.88 in 2.0 mi North 11.5 mph - N/A Rain Light Freezing Rain
9:06 PM 30.2 °F 21.3 °F 28.4 °F 93% 29.88 in 2.5 mi North 10.4 mph - N/A Rain Light Freezing Rain
9:10 PM 30.2 °F 21.3 °F 28.4 °F 93% 29.86 in 2.5 mi North 10.4 mph - N/A Rain Light Freezing Rain
9:12 PM 30.2 °F 21.3 °F 28.4 °F 93% 29.85 in 3.0 mi North 10.4 mph - N/A Rain Light Freezing Rain
9:20 PM 32.0 °F 23.6 °F 28.4 °F 87% 29.86 in 3.0 mi North 10.4 mph - N/A Rain Light Freezing Rain
9:27 PM 32.0 °F 23.6 °F 28.4 °F 87% 29.86 in 3.0 mi North 10.4 mph - N/A Rain Light Freezing Rain
9:31 PM 32.0 °F 23.6 °F 28.4 °F 87% 29.85 in 2.5 mi North 10.4 mph - N/A Rain Light Freezing Rain
9:32 PM 32.0 °F 23.6 °F 28.4 °F 87% 29.85 in 2.5 mi North 10.4 mph - N/A Rain Light Freezing Rain
9:37 PM 30.2 °F 21.3 °F 28.4 °F 93% 29.85 in 2.5 mi North 10.4 mph - N/A Rain Light Freezing Rain
9:42 PM 30.2 °F 21.9 °F 28.4 °F 93% 29.84 in 2.5 mi North 9.2 mph - N/A Rain Light Freezing Rain
9:58 PM 30.2 °F 21.9 °F 29.1 °F 96% 29.86 in 2.5 mi North 9.2 mph - 0.15 in Rain Light Freezing Rain
10:03 PM 32.0 °F - 28.4 °F 87% 29.84 in 2.5 mi Calm Calm - N/A Rain Light Freezing Rain
10:07 PM 30.2 °F - 28.4 °F 93% 29.84 in 2.0 mi Calm Calm - N/A Rain Light Freezing Rain
10:15 PM 30.2 °F - 28.4 °F 93% 29.83 in 2.0 mi Calm Calm - N/A Rain Light Freezing Rain
10:30 PM 30.2 °F - 30.2 °F 100% 29.79 in 2.5 mi Calm Calm - N/A Rain Light Freezing Rain
10:32 PM 30.2 °F - 30.2 °F 100% 29.79 in 3.0 mi Calm Calm - N/A Rain Light Freezing Rain
10:39 PM 30.2 °F - 30.2 °F 100% 29.78 in 3.0 mi Calm Calm - N/A Rain Light Freezing Rain
10:55 PM 30.2 °F - 30.2 °F 100% 29.78 in 3.0 mi Calm Calm - N/A Rain Light Freezing Rain
10:58 PM 30.2 °F - 29.5 °F 97% 29.81 in 3.0 mi Calm Calm - 0.09 in Rain Light Freezing Rain
10:59 PM 30.2 °F - 30.2 °F 100% 29.77 in 3.0 mi Calm Calm - N/A Rain Light Freezing Rain
11:33 PM 32.0 °F - 32.0 °F 100% 29.78 in 3.0 mi Calm Calm - N/A Rain Light Freezing Rain
11:38 PM 32.0 °F - 32.0 °F 100% 29.78 in 3.0 mi Calm Calm - N/A Rain Light Freezing Rain
11:45 PM 32.0 °F - 32.0 °F 100% 29.80 in 3.0 mi Calm Calm - N/A Rain Light Freezing Rain
11:50 PM 32.0 °F - 32.0 °F 100% 29.78 in 3.0 mi Calm Calm - N/A Rain Light Freezing Rain
11:54 PM 32.0 °F - 32.0 °F 100% 29.77 in 3.0 mi Calm Calm - N/A Rain Light Freezing Rain
11:57 PM 32.0 °F - 32.0 °F 100% 29.76 in 3.0 mi Calm Calm - N/A Rain Light Freezing Rain
11:58 PM 32.0 °F - 32.0 °F 100% 29.79 in 3.0 mi Calm Calm - 0.07 in Rain Light Freezing Rain